Flag for Vatican City State Weather past 2 weeks in Vatican City, Vatican City State

Now
68 °F

Clear.


Feels Like: 68 °F
Forecast: 66 / 83 °F
Wind: 5 mph from South

Location: Rome / Ciampino

Current Time: Aug 23, 2014 at 5:51:04 AM

Latest Report: Aug 23, 2014 at 4:45 AM


Visibility: 10 mi

Pressure: 29.98 "Hg

Humidity: 73%

Dew point: 59 °F

Location of Vatican CityLocation

Historic Weather in Vatican City — Graph

°F

Vatican City temperature yesterday

Maximum temperature yesterday: 88 °F (at 1:45 PM)
Minimum temperature yesterday: 68 °F (at 4:45 AM)
Average temperature yesterday: 78 °F

Past Weeks' High & Low Weather Summary

 TemperatureHumidityPressure
High91 °F (Aug 11, 1:45 PM)100% (Aug 10, 2:45 AM)30.04 "Hg (Aug 10, 2:45 AM)
Low63 °F (Aug 17, 6:45 AM)15% (Aug 17, 12:45 PM)29.80 "Hg (Aug 13, 5:45 PM)
Average77 °F66%29.94 "Hg
* Reported Aug 8 4:15 AM — Aug 23 4:15 AM, Vatican City, Weather by CustomWeather, © 2014

Note: Actual official high and low records may vary slightly from our data, if they occured in-between our weather recording intervals... More about our weather records

Advertising

Vatican City weather history for previous 24 hours

 ConditionsComfort  
Time TempWeatherWind HumidityBarometerVisibility
4:15 AM
Aug 23
68 °FClear.2 mph60%29.98 "Hg10 mi
3:45 AM68 °FClear.5 mph60%29.98 "Hg10 mi
3:15 AM68 °FClear.5 mph64%29.98 "Hg10 mi
2:45 AM68 °FClear.6 mph73%29.98 "Hg10 mi
2:15 AM70 °FClear.3 mph73%29.98 "Hg10 mi
1:15 AM72 °FClear.3 mph78%29.98 "Hg10 mi
12:45 AM73 °FClear.3 mph78%29.98 "Hg10 mi
12:15 AM73 °FClear.2 mph78%29.98 "Hg10 mi
11:45 PM
Aug 22
73 °FClear.3 mph78%29.98 "Hg10 mi
11:15 PM73 °FClear.3 mph78%29.98 "Hg10 mi
10:45 PM73 °FClear.3 mph78%29.98 "Hg10 mi
10:15 PM73 °FClear.3 mph74%29.98 "Hg10 mi
9:45 PM75 °FPassing clouds.2 mph69%29.98 "HgN/A
9:15 PM77 °FPassing clouds.5 mph65%29.98 "HgN/A
8:45 PM77 °FPassing clouds.3 mph57%29.98 "HgN/A
8:15 PM79 °FPassing clouds.3 mph54%29.98 "HgN/A
7:45 PM81 °FPassing clouds.5 mph48%29.95 "HgN/A
7:15 PM82 °FPassing clouds.6 mph45%29.95 "HgN/A
6:45 PM84 °FPassing clouds.6 mph43%29.95 "HgN/A
6:15 PM86 °FPassing clouds.6 mph38%29.95 "HgN/A
5:45 PM86 °FPassing clouds.7 mph38%29.95 "HgN/A
5:15 PM86 °FPassing clouds.7 mph38%29.95 "HgN/A
4:45 PM86 °FScattered clouds.8 mph38%29.95 "HgN/A
4:15 PM86 °FScattered clouds.8 mph38%29.95 "HgN/A
3:45 PM86 °FScattered clouds.9 mph38%29.95 "HgN/A
3:15 PM88 °FScattered clouds.9 mph38%29.98 "HgN/A
2:45 PM88 °FScattered clouds.7 mph38%29.98 "HgN/A
2:15 PM88 °FScattered clouds.7 mph35%29.98 "HgN/A
1:45 PM88 °FScattered clouds.5 mph31%29.98 "HgN/A
1:15 PM86 °FPassing clouds.3 mph31%29.98 "HgN/A
12:45 PM86 °FPassing clouds.6 mph35%29.98 "HgN/A
12:15 PM86 °FPassing clouds.6 mph35%29.98 "HgN/A
11:45 AM86 °FPassing clouds.5 mph35%29.98 "HgN/A
11:15 AM84 °FPassing clouds.6 mph40%29.98 "HgN/A
10:45 AM82 °FSunny.3 mph48%29.98 "Hg10 mi
10:15 AM79 °FSunny.2 mph54%29.98 "Hg10 mi
9:45 AM77 °FSunny.1 mph61%29.98 "Hg10 mi
9:15 AM77 °FSunny.1 mph65%29.98 "Hg10 mi
8:45 AM75 °FSunny.2 mph69%29.98 "Hg10 mi
8:15 AM73 °FSunny.No wind74%29.95 "Hg10 mi
7:45 AM70 °FSunny.1 mph73%29.95 "Hg10 mi
7:15 AM68 °FClear.1 mph78%29.95 "Hg10 mi
6:45 AM68 °FClear.No wind78%29.95 "Hg10 mi
6:15 AM68 °FClear.No wind78%29.95 "Hg10 mi
5:45 AM68 °FClear.No wind73%29.95 "Hg10 mi
5:15 AM68 °FClear.No wind73%29.95 "Hg10 mi
Weather by CustomWeather, © 2014

See weather overviewHow to use our weather pages